Wind_Speed
6 7 7 8 9 9 10 11 12 14 14 15 15 16 16 16 16 17 17 17 18 18 19 19 19 19 18 18 18 17 17 17 17 17 17 17 17 16 16 16 16 16 16 16
6 6 7 7 8 9 10 11 12 13 14 13 14 14 15 16 16 16 16 17 17 17 17 17 17 17 18 18 17 17 16 16 16 16 16 15 15 14 14 14 14 14 13 13
5 6 7 7 8 9 9 10 11 12 13 12 13 14 15 16 15 16 16 16 16 16 15 15 16 16 17 16 15 15 14 14 15 15 14 14 14 13 13 13 13 13 12 12
5 6 6 7 8 8 10 10 11 12 13 13 14 14 14 14 15 15 16 16 16 14 14 14 15 15 14 13 13 13 12 12 12 12 12 11 11 11 11 11 10 10 9 9
4 6 7 8 8 9 10 10 10 11 12 12 12 13 13 13 14 15 14 15 14 13 13 13 13 13 12 11 11 10 10 10 10 10 10 9 9 9 9 9 9 8 8 8
5 6 7 8 8 8 9 9 10 11 11 11 11 11 12 12 13 14 14 14 13 12 11 11 10 9 9 9 8 8 8 9 8 8 8 8 8 8 8 8 7 7 6 7
5 6 7 7 8 7 8 9 9 10 10 11 11 11 11 12 13 14 13 12 11 10 10 9 8 7 6 7 7 7 7 7 7 7 7 7 7 7 6 6 6 6 6 5
5 6 7 7 7 7 7 8 9 9 10 10 11 11 11 11 11 11 10 9 9 8 7 6 6 6 6 5 5 5 6 6 6 7 7 6 7 6 6 6 6 6 6 5
5 5 6 6 7 7 7 8 9 9 10 10 11 11 10 11 10 9 8 8 7 6 5 5 4 4 4 4 4 5 6 6 6 6 6 6 6 6 7 7 7 6 6 6
5 4 5 5 6 7 7 7 8 9 10 10 11 10 10 10 9 8 7 6 6 5 4 4 3 3 4 4 4 5 5 5 6 6 7 7 7 7 8 9 9 8 8 8
4 4 5 5 6 7 7 8 9 10 11 10 10 10 10 9 8 7 7 6 5 5 4 4 3 4 4 4 4 4 5 5 6 6 7 7 7 8 8 9 10 10 10 10
5 5 5 5 5 6 8 8 9 10 10 10 10 10 10 9 8 8 7 6 5 4 4 5 5 5 5 5 5 5 6 6 7 7 8 8 8 8 9 9 10 11 11 11
4 4 4 4 5 6 7 8 8 9 9 9 10 10 10 9 8 8 7 6 6 5 5 5 6 6 6 6 6 7 7 7 8 8 9 9 9 9 10 11 11 12 12 12
4 3 3 4 5 5 6 7 8 8 8 8 9 9 9 8 8 7 7 6 6 5 5 6 6 6 7 7 7 8 8 8 8 9 9 10 10 10 11 11 12 12 12 12
3 3 4 4 4 5 5 7 7 7 8 8 8 8 9 8 7 7 7 6 6 6 6 6 7 7 7 8 8 8 8 9 9 10 10 11 11 11 11 11 12 12 12 12
3 3 3 4 4 4 5 6 7 7 7 7 7 8 8 8 8 7 7 7 7 6 6 6 7 7 7 7 8 8 8 9 10 10 10 10 11 11 11 11 12 12 12 12
2 2 2 3 4 5 5 5 5 6 6 6 6 7 7 7 7 7 7 7 6 6 6 6 6 6 6 7 7 7 8 8 9 9 9 9 9 10 10 10 10 11 11 11
2 2 2 2 3 4 5 5 5 5 6 6 6 6 7 7 6 6 6 6 6 6 5 5 5 5 6 6 6 6 7 7 7 7 7 8 8 9 9 9 9 9 10 10
2 1 2 2 3 3 4 4 4 4 5 5 5 6 6 6 6 5 5 5 5 5 5 5 5 5 5 5 5 5 5 5 6 6 6 7 7 7 7 8 8 8 8 8
2 2 2 2 3 3 3 3 4 4 4 4 5 5 6 6 5 5 4 4 4 4 4 4 4 3 3 4 4 4 4 4 4 4 5 5 5 5 6 6 6 6 6 6
3 3 3 2 2 3 3 3 3 3 4 4 4 4 5 5 5 5 4 3 2 2 2 2 1 1 1 2 2 2 2 2 2 2 2 3 3 3 3 3 4 4 4 4
4 4 4 3 3 3 3 3 3 3 3 3 4 4 4 4 4 4 3 3 2 1 1 0 0 1 1 1 1 1 1 1 1 1 1 1 1 1 1 2 1 1 1 1
5 5 5 4 4 4 4 4 4 4 4 4 4 4 4 4 4 3 3 3 2 2 2 2 2 2 2 2 3 3 3 3 3 3 3 3 3 3 3 3 3 3 3 4
7 6 5 5 5 5 5 5 5 5 5 5 5 5 5 4 4 4 4 4 4 4 4 4 4 4 4 4 5 5 5 5 6 6 6 6 7 7 7 7 7 7 7 7
8 7 7 6 6 6 7 7 7 7 7 7 7 7 7 7 6 6 6 6 6 6 6 6 6 7 7 7 8 8 8 8 8 9 9 10 10 10 10 11 11 11 11 11
10 9 8 8 8 8 8 8 8 8 9 9 9 9 9 9 9 9 9 9 9 9 9 9 9 10 10 10 11 11 11 11 12 12 12 12 13 13 13 14 14 15 15 15
11 10 10 10 10 10 10 10 10 10 11 11 11 10 11 11 11 11 11 11 11 11 11 12 12 13 13 13 13 14 14 14 15 15 15 15 15 16 16 17 17 17 18 18
Wind_Direction
266 267 263 265 267 270 271 272 273 274 277 281 284 286 287 288 291 291 292 292 290 289 289 287 286 287 289 292 294 294 295 299 299 303 306 307 304 298 297 298 297 296 294 291
269 271 270 272 272 275 279 281 282 281 284 288 289 290 291 293 295 296 295 294 294 293 290 286 285 287 291 295 296 297 298 300 301 303 306 308 308 304 301 301 301 298 297 297
269 275 278 282 284 282 286 288 290 290 291 295 294 294 295 296 295 296 297 295 293 294 291 290 290 291 293 295 297 298 300 302 304 305 307 309 310 306 303 301 300 300 300 300
272 279 287 298 298 296 296 293 292 294 295 297 296 297 297 297 297 298 297 297 296 292 295 295 293 294 295 296 298 299 302 306 308 309 313 314 315 313 312 310 307 306 306 307
281 288 298 304 306 304 300 298 298 299 303 303 303 302 301 301 301 300 299 302 299 294 294 295 293 294 296 297 299 304 305 310 313 314 314 314 319 323 323 322 319 318 317 316
287 293 302 309 309 310 308 307 305 303 307 311 309 305 305 304 304 304 304 301 298 297 296 295 295 296 299 300 307 316 316 315 320 324 324 326 331 334 333 329 329 333 334 332
298 303 309 314 317 319 319 318 316 313 313 316 317 315 313 311 309 309 308 306 304 298 295 294 296 298 303 310 316 322 325 327 328 336 342 345 350 353 353 351 348 353 357 360
300 307 313 317 321 325 328 329 328 326 325 326 326 324 323 321 319 319 318 317 315 309 306 306 309 310 313 321 325 330 342 350 354 357 0 5 9 11 13 14 14 19 21 27
298 307 318 317 324 330 333 335 339 341 338 336 335 333 330 330 330 333 336 331 328 324 326 329 331 332 332 334 340 349 2 13 21 24 25 28 32 37 37 43 46 48 52 57
298 306 318 325 333 340 344 346 350 350 348 347 346 344 343 345 346 347 346 342 343 344 343 349 359 1 7 8 9 13 23 30 33 33 39 46 56 56 53 56 57 61 66 69
300 305 316 328 338 345 346 351 353 353 353 354 355 356 357 358 0 1 1 359 1 1 9 22 32 33 40 40 39 42 46 49 50 53 57 62 64 63 63 64 66 70 75 75
297 301 310 326 335 343 348 352 354 355 357 1 4 5 6 7 8 11 16 21 24 31 42 54 59 58 61 60 58 56 62 66 68 68 67 70 72 68 67 68 75 78 80 81
297 301 305 317 328 340 349 356 358 359 2 7 9 11 13 17 20 25 32 39 45 55 63 67 68 68 67 67 70 73 76 76 75 76 75 76 75 74 74 76 80 81 83 86
302 305 315 320 325 340 352 357 359 1 5 9 11 13 18 23 28 35 42 47 53 62 70 75 79 78 76 75 76 79 80 80 80 82 81 79 79 80 81 83 84 84 85 87
307 317 326 328 329 339 349 355 358 2 6 10 14 18 24 28 32 39 44 50 58 68 75 81 84 84 80 80 82 79 78 79 83 87 84 81 82 84 85 85 86 87 86 87
318 326 330 333 338 344 346 350 356 2 8 13 18 23 27 32 36 38 41 48 57 66 75 82 85 86 84 86 85 81 81 85 88 87 84 83 85 87 88 87 88 90 91 91
310 317 318 329 341 344 346 352 1 6 11 16 19 22 27 32 36 39 42 45 52 63 75 83 87 87 86 89 87 87 88 89 89 88 87 87 87 89 92 92 91 94 95 95
292 299 314 326 341 346 351 359 5 10 15 19 22 24 26 31 36 41 44 47 53 63 73 82 88 92 92 93 93 92 96 95 92 91 90 90 91 91 93 95 97 99 99 99
261 281 311 324 339 349 352 358 2 5 12 19 23 23 24 28 31 35 40 45 52 64 78 89 93 94 96 98 96 97 100 99 96 96 95 95 97 96 95 96 99 102 102 101
247 269 303 325 339 346 347 349 354 358 4 10 11 12 16 21 25 30 33 43 57 71 81 90 91 94 99 103 103 100 98 98 100 101 102 104 103 100 99 100 102 104 105 104
250 266 288 311 329 337 341 346 349 350 353 358 360 2 6 13 19 25 30 34 45 63 77 81 77 90 121 127 120 114 114 106 106 110 115 117 113 106 106 111 111 112 111 108
254 264 275 287 298 309 320 331 337 337 339 345 350 352 357 2 8 15 22 25 24 21 14 348 303 265 248 243 232 224 222 225 215 213 211 202 196 190 176 167 162 157 163 186
255 264 268 271 281 290 297 304 312 315 316 319 325 332 336 338 338 342 347 349 341 327 311 297 287 271 258 252 251 253 257 259 256 253 251 249 249 247 246 248 251 255 259 263
255 261 264 266 274 282 287 293 299 302 303 303 306 313 316 317 318 317 316 313 306 299 292 283 275 273 269 264 263 262 262 262 263 263 262 260 258 256 258 261 263 265 268 271
254 257 260 265 273 279 283 287 290 292 294 296 295 296 300 301 300 300 299 297 294 288 285 282 277 274 272 271 270 270 269 267 265 266 266 265 265 262 262 263 264 267 270 271
251 254 256 262 272 279 283 285 286 287 289 290 291 290 291 291 290 290 290 289 287 284 281 280 278 277 275 274 274 275 273 272 272 271 270 269 269 268 269 270 269 269 270 271
250 254 258 262 269 277 282 284 284 285 286 286 286 287 287 287 286 286 285 285 284 282 279 279 278 277 275 274 274 275 276 276 275 274 273 271 270 270 271 272 273 272 272 274
Height
5819 5819 5818 5818 5818 5817 5817 5816 5815 5814 5812 5811 5809 5808 5806 5805 5803 5801 5799 5797 5795 5793 5791 5789 5787 5786 5784 5781 5779 5776 5774 5771 5769 5766 5764 5761 5758 5756 5754 5751 5749 5747 5745 5743
5817 5817 5816 5815 5815 5814 5813 5812 5811 5810 5808 5806 5805 5803 5801 5800 5798 5796 5795 5792 5790 5788 5786 5784 5782 5780 5779 5776 5774 5772 5769 5767 5765 5763 5760 5757 5755 5752 5750 5748 5746 5744 5742 5740
5815 5814 5814 5813 5812 5811 5810 5809 5808 5806 5805 5802 5801 5799 5797 5796 5794 5792 5789 5787 5785 5783 5781 5779 5777 5776 5774 5772 5770 5767 5765 5763 5761 5759 5756 5754 5751 5749 5747 5745 5743 5741 5739 5737
5813 5813 5812 5813 5809 5808 5807 5806 5804 5802 5800 5799 5797 5795 5793 5791 5789 5787 5785 5783 5781 5779 5777 5775 5774 5772 5770 5768 5766 5764 5762 5760 5758 5755 5753 5751 5748 5746 5744 5742 5740 5738 5736 5734
5811 5811 5810 5809 5807 5805 5804 5802 5800 5798 5796 5794 5793 5791 5789 5787 5785 5783 5781 5779 5776 5774 5773 5771 5769 5768 5766 5765 5763 5761 5759 5757 5755 5753 5751 5748 5746 5744 5742 5740 5738 5736 5734 5733
5809 5809 5808 5808 5805 5803 5802 5800 5797 5795 5793 5791 5789 5788 5786 5784 5781 5779 5777 5775 5772 5771 5769 5767 5766 5764 5763 5762 5760 5758 5756 5755 5753 5750 5748 5746 5744 5743 5741 5739 5737 5735 5733 5732
5807 5806 5805 5804 5802 5801 5800 5799 5795 5792 5791 5789 5787 5785 5783 5780 5778 5775 5773 5770 5768 5767 5765 5764 5763 5761 5760 5759 5758 5756 5754 5753 5751 5749 5747 5745 5743 5742 5740 5738 5737 5735 5733 5732
5805 5805 5805 5802 5800 5800 5798 5795 5792 5790 5788 5786 5784 5782 5779 5777 5774 5772 5770 5768 5766 5764 5763 5761 5760 5759 5758 5757 5756 5755 5753 5751 5749 5748 5746 5745 5743 5742 5740 5738 5737 5735 5734 5732
5804 5804 5802 5800 5798 5797 5795 5793 5791 5789 5787 5784 5782 5780 5777 5775 5772 5770 5768 5766 5764 5762 5761 5760 5759 5758 5757 5756 5755 5754 5752 5751 5749 5748 5746 5745 5743 5742 5740 5739 5737 5736 5735 5733
5801 5800 5799 5798 5797 5795 5794 5792 5790 5787 5785 5783 5780 5778 5775 5773 5771 5768 5766 5764 5763 5761 5760 5759 5758 5757 5756 5755 5754 5753 5752 5751 5750 5748 5747 5746 5744 5743 5742 5740 5739 5738 5737 5735
5799 5799 5798 5797 5795 5794 5792 5790 5788 5786 5784 5782 5779 5777 5774 5772 5770 5768 5766 5764 5762 5761 5760 5759 5758 5757 5756 5756 5755 5754 5753 5752 5750 5749 5748 5747 5746 5745 5744 5743 5741 5740 5739 5738
5798 5797 5796 5796 5794 5793 5791 5790 5788 5786 5783 5781 5779 5777 5774 5772 5770 5768 5766 5764 5763 5761 5760 5759 5759 5758 5757 5757 5756 5755 5754 5753 5752 5751 5750 5749 5748 5747 5746 5745 5744 5743 5742 5741
5796 5795 5795 5794 5793 5792 5790 5789 5787 5785 5783 5781 5779 5777 5774 5772 5770 5768 5766 5765 5763 5762 5761 5761 5760 5759 5759 5758 5757 5756 5756 5755 5754 5753 5752 5751 5750 5749 5748 5748 5747 5746 5745 5745
5794 5794 5793 5793 5792 5791 5790 5788 5787 5785 5783 5781 5779 5777 5775 5773 5771 5769 5767 5766 5765 5763 5763 5762 5761 5761 5760 5760 5759 5758 5757 5757 5756 5755 5754 5753 5752 5752 5751 5751 5750 5750 5749 5749
5793 5793 5792 5791 5791 5790 5789 5788 5786 5785 5783 5781 5779 5777 5775 5773 5772 5770 5769 5767 5766 5765 5764 5763 5763 5762 5762 5761 5761 5760 5760 5759 5758 5757 5757 5756 5755 5755 5755 5754 5754 5753 5753 5753
5792 5792 5791 5791 5790 5789 5788 5787 5786 5785 5783 5781 5780 5778 5776 5775 5773 5771 5770 5769 5768 5767 5766 5765 5765 5764 5764 5764 5763 5763 5762 5762 5761 5761 5760 5759 5759 5758 5758 5757 5757 5757 5757 5756
5791 5791 5790 5790 5789 5789 5788 5787 5786 5784 5783 5782 5780 5779 5777 5776 5774 5773 5771 5770 5769 5768 5767 5767 5767 5766 5766 5766 5765 5765 5765 5764 5764 5763 5763 5762 5762 5761 5761 5761 5760 5760 5760 5760
5790 5790 5789 5789 5789 5788 5787 5786 5785 5784 5783 5782 5781 5779 5778 5776 5775 5774 5773 5771 5771 5770 5769 5769 5768 5768 5768 5768 5768 5767 5767 5766 5766 5766 5766 5765 5765 5764 5764 5764 5764 5763 5763 5763
5789 5789 5788 5788 5788 5787 5786 5786 5785 5784 5783 5782 5781 5780 5779 5777 5776 5775 5774 5773 5772 5771 5771 5770 5770 5770 5770 5770 5769 5769 5769 5769 5768 5768 5768 5767 5767 5767 5767 5767 5766 5766 5766 5766
5787 5787 5787 5787 5787 5786 5786 5785 5785 5784 5783 5782 5781 5780 5779 5778 5777 5776 5775 5774 5774 5773 5773 5772 5772 5772 5771 5771 5771 5771 5771 5770 5770 5770 5770 5769 5769 5769 5769 5769 5769 5768 5768 5768
5786 5786 5786 5786 5786 5785 5785 5784 5784 5783 5783 5782 5781 5780 5779 5778 5777 5776 5775 5775 5775 5774 5774 5773 5773 5773 5772 5772 5772 5772 5772 5771 5771 5771 5771 5771 5771 5770 5770 5770 5770 5770 5770 5770
5784 5784 5784 5784 5784 5784 5784 5784 5783 5783 5782 5781 5781 5780 5779 5778 5778 5777 5776 5775 5775 5774 5774 5774 5773 5773 5773 5773 5772 5772 5772 5772 5772 5772 5771 5771 5771 5771 5771 5771 5771 5771 5771 5770
5781 5782 5782 5782 5783 5783 5782 5782 5782 5782 5781 5781 5780 5780 5779 5778 5777 5777 5776 5776 5775 5774 5774 5774 5773 5773 5773 5772 5772 5772 5772 5772 5771 5771 5771 5771 5771 5771 5771 5771 5770 5770 5770 5770
5779 5779 5780 5780 5780 5780 5780 5780 5780 5780 5780 5779 5779 5778 5778 5777 5776 5776 5775 5775 5774 5774 5773 5773 5773 5772 5772 5771 5771 5771 5771 5770 5770 5770 5770 5770 5770 5769 5769 5769 5769 5769 5768 5768
5775 5776 5777 5777 5778 5778 5778 5778 5778 5778 5777 5777 5777 5776 5776 5775 5775 5774 5774 5773 5772 5772 5772 5771 5771 5770 5770 5770 5769 5769 5769 5768 5768 5768 5768 5767 5767 5767 5767 5766 5766 5766 5765 5765
5772 5773 5774 5774 5775 5775 5775 5775 5775 5775 5775 5774 5774 5774 5773 5773 5772 5772 5771 5771 5770 5769 5769 5769 5768 5768 5767 5767 5767 5766 5766 5766 5765 5765 5764 5764 5764 5763 5763 5763 5762 5761 5761 5760
5767 5769 5770 5771 5771 5772 5772 5771 5771 5771 5771 5771 5771 5770 5770 5769 5769 5768 5768 5767 5767 5766 5765 5765 5764 5764 5764 5763 5763 5762 5762 5761 5761 5761 5760 5760 5759 5759 5758 5757 5757 5756 5755 5755